Location: Barton Flats Campground
(34.1722°N, 116.8753°W)
Time: 18:22:13
(UTC+00:00)

NOSS 2-2 (D) - Pass Details

Date: 08 August 2020
Orbit: 469 x 1739 km, 63.3° (Epoch: 26 September)

Event Time Altitude Azimuth Distance (km) Brightness Sun altitude
Exits shadow 12:03:18 - 191° (S) 1,819 5.6 -12.3°
Reaches altitude 10° 12:03:40 10° 189° (S) 1,667 5.4 -12.2°
Maximum altitude 12:07:04 43° 117° (ESE) 673 4.0 -11.6°
Drops below altitude 10° 12:10:27 10° 45° (NE) 1,654 7.1 -11.0°
Sets 12:12:41 0° 38° (NE) 2,598 8.1 -10.6°
